| time (UTC) | temp C | wind direction | speed KPH | gust KPH | rain 1hr cm | rain 24hr cm | rain mn cm | humidity % | barometer mb |
| 20260505181014 | 26 | 225 | 16.1 | 32.2 | 0.00 | 0.00 | 0.00 | 38 | 1015.7 |
| 20260505180516 | 26 | 170 | 9.7 | 29.0 | 0.00 | 0.00 | 0.00 | 38 | 1016.0 |
| 20260505180036 | 26 | 192 | 12.9 | 27.4 | 0.00 | 0.00 | 0.00 | 39 | 1016.0 |
| 20260505175517 | 26 | 298 | 9.7 | 24.1 | 0.00 | 0.00 | 0.00 | 39 | 1016.1 |
| 20260505175013 | 26 | 159 | 6.4 | 33.8 | 0.00 | 0.00 | 0.00 | 42 | 1016.0 |
| 20260505174539 | 25 | 162 | 17.7 | 33.8 | 0.00 | 0.00 | 0.00 | 41 | 1016.0 |
| 20260505174014 | 26 | 215 | 11.3 | 29.0 | 0.00 | 0.00 | 0.00 | 41 | 1015.9 |
| 20260505173514 | 25 | 171 | 14.5 | 29.0 | 0.00 | 0.00 | 0.00 | 41 | 1016.0 |
| 20260505173039 | 26 | 223 | 12.9 | 29.0 | 0.00 | 0.00 | 0.00 | 41 | 1016.1 |
| 20260505172515 | 25 | 174 | 11.3 | 19.3 | 0.00 | 0.00 | 0.00 | 42 | 1016.0 |
| 20260505172014 | 25 | 150 | 11.3 | 29.0 | 0.00 | 0.00 | 0.00 | 42 | 1016.2 |
| 20260505171537 | 25 | 178 | 17.7 | 30.6 | 0.00 | 0.00 | 0.00 | 41 | 1016.3 |
| 20260505171013 | 25 | 196 | 14.5 | 22.5 | 0.00 | 0.00 | 0.00 | 42 | 1016.3 |
| 20260505170514 | 25 | 203 | 16.1 | 25.7 | 0.00 | 0.00 | 0.00 | 42 | 1016.4 |
| 20260505170044 | 25 | 194 | 12.9 | 27.4 | 0.00 | 0.00 | 0.00 | 43 | 1016.6 |
| 20260505165514 | 25 | 178 | 14.5 | 27.4 | 0.00 | 0.00 | 0.00 | 43 | 1016.5 |
| 20260505165012 | 25 | 212 | 12.9 | 25.7 | 0.00 | 0.00 | 0.00 | 44 | 1016.7 |
| 20260505164540 | 25 | 175 | 8.0 | 29.0 | 0.00 | 0.00 | 0.00 | 44 | 1016.7 |
| 20260505164014 | 25 | 152 | 17.7 | 29.0 | 0.00 | 0.00 | 0.00 | 44 | 1016.8 |
| 20260505163515 | 25 | 166 | 8.0 | 20.9 | 0.00 | 0.00 | 0.00 | 43 | 1016.7 |
| 20260505163041 | 25 | 160 | 14.5 | 20.9 | 0.00 | 0.00 | 0.00 | 42 | 1016.8 |
| 20260505162515 | 25 | 268 | 8.0 | 25.7 | 0.00 | 0.00 | 0.00 | 44 | 1016.8 |
| 20260505162012 | 25 | 229 | 9.7 | 22.5 | 0.00 | 0.00 | 0.00 | 45 | 1016.8 |
| 20260505161544 | 25 | 242 | 12.9 | 22.5 | 0.00 | 0.00 | 0.00 | 45 | 1016.7 |
| 20260505161019 | 24 | 200 | 9.7 | 29.0 | 0.00 | 0.00 | 0.00 | 45 | 1016.9 |
| 20260505160516 | 24 | 205 | 17.7 | 29.0 | 0.00 | 0.00 | 0.00 | 46 | 1016.8 |
| 20260505153050 | 23 | 182 | 11.3 | 24.1 | 0.00 | 0.00 | 0.00 | 47 | 1017.0 |
| 20260505152514 | 23 | 221 | 12.9 | 25.7 | 0.00 | 0.00 | 0.00 | 49 | 1016.9 |
| 20260505152015 | 23 | 254 | 11.3 | 25.7 | 0.00 | 0.00 | 0.00 | 49 | 1017.0 |
| 20260505151544 | 23 | 184 | 9.7 | 29.0 | 0.00 | 0.00 | 0.00 | 50 | 1017.1 |
| 20260505151013 | 23 | 238 | 12.9 | 29.0 | 0.00 | 0.00 | 0.00 | 50 | 1017.3 |
| 20260505150515 | 23 | 178 | 9.7 | 19.3 | 0.00 | 0.00 | 0.00 | 50 | 1017.1 |
| 20260505140516 | 21 | 240 | 8.0 | 24.1 | 0.00 | 0.00 | 0.00 | 57 | 1017.4 |
| 20260505125014 | 18 | 288 | 4.8 | 12.9 | 0.00 | 0.00 | 0.00 | 64 | 1017.4 |
| 20260505124600 | 17 | 200 | 6.4 | 16.1 | 0.00 | 0.00 | 0.00 | 65 | 1017.3 |
| 20260505124017 | 17 | 191 | 8.0 | 19.3 | 0.00 | 0.00 | 0.00 | 65 | 1017.5 |
| 20260505123518 | 17 | 205 | 9.7 | 19.3 | 0.00 | 0.00 | 0.00 | 66 | 1017.4 |
| 20260505123056 | 17 | 202 | 11.3 | 17.7 | 0.00 | 0.00 | 0.00 | 66 | 1017.5 |
| 20260505122513 | 17 | 211 | 9.7 | 17.7 | 0.00 | 0.00 | 0.00 | 67 | 1017.2 |
| 20260505122202 | 17 | 196 | 9.7 | 16.1 | 0.00 | 0.00 | 0.00 | 68 | 1017.3 |
| 20260505121546 | 16 | 232 | 9.7 | 16.1 | 0.00 | 0.00 | 0.00 | 68 | 1017.1 |
| 20260505121012 | 16 | 229 | 4.8 | 19.3 | 0.00 | 0.00 | 0.00 | 69 | 1017.3 |
| 20260505120514 | 16 | 360 | 6.4 | 19.3 | 0.00 | 0.00 | 0.00 | 70 | 1017.5 |
| 20260505120053 | 16 | 238 | 9.7 | 17.7 | 0.00 | 0.00 | 0.00 | 69 | 1017.3 |
| 20260505115512 | 16 | 218 | 9.7 | 17.7 | 0.00 | 0.00 | 0.00 | 70 | 1017.3 |
| 20260505115015 | 16 | 242 | 11.3 | 17.7 | 0.00 | 0.00 | 0.00 | 70 | 1017.1 |
| 20260505114537 | 16 | 213 | 40.2 | 16.1 | 0.00 | 0.00 | 0.00 | 71 | 1017.2 |
| 20260505114014 | 16 | 178 | 40.2 | 11.3 | 0.00 | 0.00 | 0.00 | 1017.2 | |
| 20260505113513 | 15 | 211 | 40.2 | 19.3 | 0.00 | 0.00 | 0.00 | 73 | 1017.2 |
| 20260505113044 | 15 | 211 | 40.2 | 19.3 | 0.00 | 0.00 | 0.00 | 73 | 1017.1 |
| 20260505112513 | 15 | 237 | 40.2 | 19.3 | 0.00 | 0.00 | 0.00 | 73 | 1017.2 |
| 20260505112014 | 15 | 211 | 40.2 | 17.7 | 0.00 | 0.00 | 0.00 | 73 | 1017.2 |
| 20260505111544 | 15 | 175 | 40.2 | 17.7 | 0.00 | 0.00 | 0.00 | 73 | 1017.3 |
| 20260505111011 | -17 | 40.2 | 0.0 | 0.00 | 0.00 | 0.00 | 1017.1 | ||
| 20260505110514 | -17 | 40.2 | 0.0 | 0.00 | 0.00 | 0.00 | 1016.9 | ||
| 20260505102014 | 16 | 217 | 11.3 | 24.1 | 0.00 | 0.00 | 0.00 | 70 | 1016.5 |
| 20260505101544 | 15 | 238 | 12.9 | 24.1 | 0.00 | 0.00 | 0.00 | 70 | 1016.5 |
| 20260505101017 | 16 | 260 | 14.5 | 24.1 | 0.00 | 0.00 | 0.00 | 70 | 1016.4 |
| 20260505100517 | 16 | 229 | 14.5 | 24.1 | 0.00 | 0.00 | 0.00 | 70 | 1016.3 |
| 20260505100040 | 16 | 215 | 14.5 | 24.1 | 0.00 | 0.00 | 0.00 | 69 | 1016.3 |
| 20260505095512 | 16 | 205 | 14.5 | 24.1 | 0.00 | 0.00 | 0.00 | 69 | 1016.4 |
| 20260505095014 | 16 | 220 | 14.5 | 25.7 | 0.00 | 0.00 | 0.00 | 69 | 1016.2 |
| 20260505094538 | 16 | 227 | 14.5 | 25.7 | 0.00 | 0.00 | 0.00 | 69 | 1016.1 |
| 20260505094012 | 16 | 201 | 14.5 | 25.7 | 0.00 | 0.00 | 0.00 | 69 | 1015.9 |
| 20260505093515 | 16 | 241 | 14.5 | 25.7 | 0.00 | 0.00 | 0.00 | 69 | 1016.0 |
| 20260505093046 | 16 | 254 | 14.5 | 24.1 | 0.00 | 0.00 | 0.00 | 69 | 1015.8 |
| 20260505092516 | 16 | 218 | 40.2 | 22.5 | 0.00 | 0.00 | 0.00 | 1015.8 | |
| 20260505092016 | -17 | 40.2 | 0.0 | 0.00 | 0.00 | 0.00 | 1016.0 | ||
| 20260505091543 | -17 | 40.2 | 0.0 | 0.00 | 0.00 | 0.00 | 1016.0 | ||
| 20260505091015 | -17 | 40.2 | 0.0 | 0.00 | 0.00 | 0.00 | 1015.9 | ||
| 20260505090515 | -17 | 40.2 | 0.0 | 0.00 | 0.00 | 0.00 | 1015.8 | ||
| 20260505090043 | -17 | 40.2 | 0.0 | 0.00 | 0.00 | 0.00 | 1015.7 | ||
| 20260505085515 | -17 | 40.2 | 0.0 | 0.00 | 0.00 | 0.00 | 1015.7 | ||
| 20260505085015 | -17 | 40.2 | 0.0 | 0.00 | 0.00 | 0.00 | 1015.9 | ||
| 20260505084546 | -17 | 40.2 | 0.0 | 0.00 | 0.00 | 0.00 | 1015.8 | ||
| 20260505084014 | 16 | 242 | 40.2 | 11.3 | 0.00 | 0.00 | 0.00 | 1015.9 | |
| 20260505083516 | 16 | 242 | 40.2 | 11.3 | 0.00 | 0.00 | 0.00 | 1015.7 | |
| 20260505083045 | -17 | 40.2 | 0.0 | 0.00 | 0.00 | 0.00 | 1015.8 | ||
| 20260505082512 | -17 | 40.2 | 0.0 | 0.00 | 0.00 | 0.00 | 1015.5 | ||
| 20260505082014 | -17 | 40.2 | 0.0 | 0.00 | 0.00 | 0.00 | 1015.9 | ||
| 20260505081547 | -17 | 40.2 | 0.0 | 0.00 | 0.00 | 0.00 | 1015.7 | ||
| 20260505081018 | -17 | 40.2 | 0.0 | 0.00 | 0.00 | 0.00 | 1015.6 | ||
| 20260505080519 | -17 | 40.2 | 0.0 | 0.00 | 0.00 | 0.00 | 1015.7 | ||
| 20260505080050 | -17 | 40.2 | 0.0 | 0.00 | 0.00 | 0.00 | 1015.7 | ||
| 20260505075520 | 16 | 217 | 8.0 | 14.5 | 0.00 | 0.00 | 0.00 | 1015.7 | |
| 20260505075015 | 16 | 217 | 8.0 | 14.5 | 0.00 | 0.00 | 0.00 | 1015.6 | |
| 20260505074543 | 16 | 360 | 8.0 | 17.7 | 0.00 | 0.00 | 0.00 | 65 | 1015.6 |
| 20260505074015 | 16 | 236 | 6.4 | 19.3 | 0.00 | 0.00 | 0.00 | 65 | 1015.8 |
| 20260505073516 | 17 | 205 | 8.0 | 19.3 | 0.00 | 0.00 | 0.00 | 65 | 1015.8 |
| 20260505073042 | 17 | 209 | 4.8 | 16.1 | 0.00 | 0.00 | 0.00 | 65 | 1015.7 |
| 20260505072515 | 17 | 205 | 9.7 | 20.9 | 0.00 | 0.00 | 0.00 | 64 | 1015.5 |
| 20260505072016 | 17 | 205 | 6.4 | 20.9 | 0.00 | 0.00 | 0.00 | 64 | 1015.6 |
| 20260505071550 | 17 | 180 | 8.0 | 17.7 | 0.00 | 0.00 | 0.00 | 64 | 1015.3 |
| 20260505071016 | 17 | 196 | 9.7 | 17.7 | 0.00 | 0.00 | 0.00 | 64 | 1015.5 |
| 20260505070515 | 17 | 360 | 6.4 | 22.5 | 0.00 | 0.00 | 0.00 | 64 | 1015.5 |
| 20260505065515 | 17 | 217 | 8.0 | 16.1 | 0.00 | 0.00 | 0.00 | 63 | 1015.3 |
| 20260505065015 | 17 | 196 | 8.0 | 16.1 | 0.00 | 0.00 | 0.00 | 63 | 1015.3 |
| 20260505064556 | 17 | 181 | 8.0 | 19.3 | 0.00 | 0.00 | 0.00 | 63 | 1015.4 |
| 20260505064015 | 17 | 360 | 4.8 | 24.1 | 0.00 | 0.00 | 0.00 | 63 | 1015.4 |
| 20260505063515 | 17 | 360 | 6.4 | 24.1 | 0.00 | 0.00 | 0.00 | 62 | 1015.3 |
| 20260505063052 | 17 | 360 | 9.7 | 24.1 | 0.00 | 0.00 | 0.00 | 62 | 1015.3 |
| 20260505062515 | 17 | 360 | 8.0 | 19.3 | 0.00 | 0.00 | 0.00 | 62 | 1015.5 |
| 20260505062014 | 17 | 360 | 8.0 | 24.1 | 0.00 | 0.00 | 0.00 | 62 | 1015.3 |
| 20260505061611 | 17 | 360 | 8.0 | 24.1 | 0.00 | 0.00 | 0.00 | 62 | 1015.5 |
| 20260505061017 | 17 | 360 | 8.0 | 27.4 | 0.00 | 0.00 | 0.00 | 62 | 1015.6 |
| 20260505060515 | 17 | 360 | 12.9 | 27.4 | 0.00 | 0.00 | 0.00 | 61 | 1015.4 |
| 20260505060058 | 17 | 194 | 9.7 | 22.5 | 0.00 | 0.00 | 0.00 | 61 | 1015.4 |
| 20260505055516 | 17 | 226 | 11.3 | 22.5 | 0.00 | 0.00 | 0.00 | 61 | 1015.8 |
| 20260505055014 | 17 | 178 | 9.7 | 22.5 | 0.00 | 0.00 | 0.00 | 61 | 1015.5 |
| 20260505054551 | 17 | 147 | 8.0 | 20.9 | 0.00 | 0.00 | 0.00 | 62 | 1015.8 |
| 20260505054015 | 17 | 206 | 11.3 | 20.9 | 0.00 | 0.00 | 0.00 | 61 | 1015.5 |
| 20260505053516 | 17 | 225 | 8.0 | 16.1 | 0.00 | 0.00 | 0.00 | 61 | 1015.6 |
| 20260505053046 | 17 | 201 | 8.0 | 24.1 | 0.00 | 0.00 | 0.00 | 61 | 1015.4 |
| 20260505052516 | 17 | 183 | 12.9 | 24.1 | 0.00 | 0.00 | 0.00 | 61 | 1015.8 |
| 20260505052018 | 17 | 184 | 8.0 | 19.3 | 0.00 | 0.00 | 0.00 | 61 | 1015.5 |
| 20260505051551 | 17 | 200 | 8.0 | 16.1 | 0.00 | 0.00 | 0.00 | 61 | 1015.6 |
| 20260505051016 | 17 | 186 | 8.0 | 19.3 | 0.00 | 0.00 | 0.00 | 61 | 1015.6 |
| 20260505050516 | 18 | 209 | 9.7 | 25.7 | 0.00 | 0.00 | 0.00 | 61 | 1015.6 |
| 20260505041532 | 18 | 172 | 11.3 | 25.7 | 0.00 | 0.00 | 0.00 | 61 | 1015.4 |
| 20260505041011 | 18 | 183 | 12.9 | 25.7 | 0.00 | 0.00 | 0.00 | 61 | 1015.3 |
| 20260505040510 | 18 | 203 | 11.3 | 24.1 | 0.00 | 0.00 | 0.00 | 61 | 1015.4 |
| 20260505040052 | 18 | 213 | 14.5 | 25.7 | 0.00 | 0.00 | 0.00 | 61 | 1015.3 |
| 20260505035514 | 18 | 193 | 11.3 | 25.7 | 0.00 | 0.00 | 0.00 | 61 | 1015.3 |
| 20260505035017 | 18 | 220 | 12.9 | 29.0 | 0.00 | 0.00 | 0.00 | 61 | 1015.2 |
| 20260505034540 | 18 | 215 | 11.3 | 29.0 | 0.00 | 0.00 | 0.00 | 61 | 1015.3 |
| 20260505034011 | 18 | 173 | 11.3 | 27.4 | 0.00 | 0.00 | 0.00 | 61 | 1015.2 |
| 20260505033511 | 18 | 186 | 6.4 | 30.6 | 0.00 | 0.00 | 0.00 | 61 | 1015.3 |
| 20260505033030 | 18 | 236 | 14.5 | 30.6 | 0.00 | 0.00 | 0.00 | 61 | 1015.4 |
| 20260505032513 | 18 | 190 | 9.7 | 24.1 | 0.00 | 0.00 | 0.00 | 60 | 1015.2 |
| 20260505032011 | 18 | 190 | 8.0 | 25.7 | 0.00 | 0.00 | 0.00 | 60 | 1015.5 |
| 20260505031545 | 18 | 200 | 12.9 | 25.7 | 0.00 | 0.00 | 0.00 | 61 | 1015.4 |
| 20260505031011 | 18 | 169 | 11.3 | 22.5 | 0.00 | 0.00 | 0.00 | 60 | 1015.4 |
| 20260505030511 | 18 | 180 | 9.7 | 25.7 | 0.00 | 0.00 | 0.00 | 60 | 1015.3 |
| 20260505030030 | 18 | 223 | 16.1 | 25.7 | 0.00 | 0.00 | 0.00 | 60 | 1015.3 |
| 20260505025516 | 19 | 199 | 9.7 | 25.7 | 0.00 | 0.00 | 0.00 | 61 | 1015.5 |
| 20260505025011 | 19 | 227 | 11.3 | 29.0 | 0.00 | 0.00 | 0.00 | 60 | 1015.5 |
| 20260505024534 | 19 | 179 | 12.9 | 29.0 | 0.00 | 0.00 | 0.00 | 61 | 1015.4 |
| 20260505024011 | 19 | 217 | 11.3 | 30.6 | 0.00 | 0.00 | 0.00 | 61 | 1015.3 |
| 20260505023511 | 19 | 165 | 17.7 | 30.6 | 0.00 | 0.00 | 0.00 | 61 | 1015.4 |
| 20260505023034 | 19 | 217 | 11.3 | 25.7 | 0.00 | 0.00 | 0.00 | 61 | 1015.2 |
| 20260505022512 | 19 | 182 | 9.7 | 27.4 | 0.00 | 0.00 | 0.00 | 61 | 1015.5 |
| 20260505022010 | 19 | 191 | 14.5 | 29.0 | 0.00 | 0.00 | 0.00 | 61 | 1015.3 |
| 20260505021533 | 19 | 178 | 12.9 | 29.0 | 0.00 | 0.00 | 0.00 | 61 | 1015.2 |
| 20260505021014 | 19 | 209 | 9.7 | 17.7 | 0.00 | 0.00 | 0.00 | 61 | 1015.0 |
| 20260505020511 | 19 | 198 | 11.3 | 19.3 | 0.00 | 0.00 | 0.00 | 61 | 1015.1 |
| 20260505020039 | 20 | 175 | 11.3 | 24.1 | 0.00 | 0.00 | 0.00 | 60 | 1015.1 |
| 20260505015510 | 20 | 154 | 12.9 | 29.0 | 0.00 | 0.00 | 0.00 | 61 | 1015.0 |
| 20260505015016 | 20 | 201 | 14.5 | 29.0 | 0.00 | 0.00 | 0.00 | 60 | 1015.1 |
| 20260505014541 | 20 | 190 | 9.7 | 25.7 | 0.00 | 0.00 | 0.00 | 60 | 1015.4 |
| 20260505014010 | 20 | 207 | 12.9 | 25.7 | 0.00 | 0.00 | 0.00 | 60 | 1015.1 |
| 20260505013512 | 20 | 202 | 16.1 | 24.1 | 0.00 | 0.00 | 0.00 | 60 | 1015.1 |
| 20260505013031 | 20 | 165 | 11.3 | 27.4 | 0.00 | 0.00 | 0.00 | 60 | 1015.0 |
| 20260505012512 | 20 | 194 | 16.1 | 27.4 | 0.00 | 0.00 | 0.00 | 60 | 1015.1 |
| 20260505012011 | 20 | 161 | 11.3 | 30.6 | 0.00 | 0.00 | 0.00 | 60 | 1014.9 |
| 20260505011537 | 20 | 230 | 14.5 | 38.6 | 0.00 | 0.00 | 0.00 | 59 | 1014.9 |
| 20260505011013 | 20 | 166 | 14.5 | 38.6 | 0.00 | 0.00 | 0.00 | 59 | 1014.7 |
| 20260505010510 | 20 | 149 | 14.5 | 27.4 | 0.00 | 0.00 | 0.00 | 59 | 1014.7 |
| 20260505010036 | 20 | 222 | 14.5 | 27.4 | 0.00 | 0.00 | 0.00 | 59 | 1014.6 |
| 20260505005511 | 20 | 191 | 12.9 | 25.7 | 0.00 | 0.00 | 0.00 | 59 | 1014.4 |
| 20260505005013 | 20 | 178 | 11.3 | 33.8 | 0.00 | 0.00 | 0.00 | 59 | 1014.4 |
| 20260505004542 | 20 | 200 | 11.3 | 33.8 | 0.00 | 0.00 | 0.00 | 58 | 1014.2 |
| 20260505004011 | 20 | 360 | 12.9 | 25.7 | 0.00 | 0.00 | 0.00 | 58 | 1014.3 |
| 20260505003514 | 21 | 175 | 12.9 | 24.1 | 0.00 | 0.00 | 0.00 | 58 | 1014.1 |
| 20260505003035 | 21 | 145 | 11.3 | 22.5 | 0.00 | 0.00 | 0.00 | 57 | 1014.2 |
| 20260505002510 | 21 | 360 | 8.0 | 25.7 | 0.00 | 0.00 | 0.00 | 57 | 1014.3 |
| 20260505002012 | 21 | 360 | 14.5 | 25.7 | 0.00 | 0.00 | 0.00 | 57 | 1014.1 |
| 20260505001534 | 21 | 151 | 14.5 | 29.0 | 0.00 | 0.00 | 0.00 | 56 | 1014.0 |
| 20260505001013 | 21 | 191 | 12.9 | 29.0 | 0.00 | 0.00 | 0.00 | 55 | 1014.0 |
| 20260505000513 | 21 | 169 | 16.1 | 29.0 | 0.00 | 0.00 | 0.00 | 55 | 1013.9 |
| 20260505000047 | 21 | 138 | 14.5 | 30.6 | 0.00 | 0.00 | 0.00 | 54 | 1014.0 |
| 20260504235513 | 21 | 180 | 12.9 | 30.6 | 0.00 | 0.00 | 0.00 | 53 | 1013.8 |
| 20260504235012 | 22 | 206 | 12.9 | 30.6 | 0.00 | 0.00 | 0.00 | 52 | 1013.8 |
| 20260504234536 | 22 | 228 | 11.3 | 30.6 | 0.00 | 0.00 | 0.00 | 51 | 1013.8 |
| 20260504234011 | 22 | 169 | 14.5 | 22.5 | 0.00 | 0.00 | 0.00 | 49 | 1013.7 |
| 20260504233512 | 22 | 157 | 9.7 | 22.5 | 0.00 | 0.00 | 0.00 | 46 | 1013.7 |
| 20260504233039 | 23 | 174 | 9.7 | 17.7 | 0.00 | 0.00 | 0.00 | 40 | 1013.5 |
| 20260504232513 | 23 | 214 | 6.4 | 17.7 | 0.00 | 0.00 | 0.00 | 36 | 1013.3 |
| 20260504232010 | 23 | 172 | 8.0 | 19.3 | 0.00 | 0.00 | 0.00 | 35 | 1013.2 |
| 20260504231534 | 23 | 207 | 9.7 | 19.3 | 0.00 | 0.00 | 0.00 | 35 | 1013.2 |
| 20260504231017 | 23 | 206 | 8.0 | 25.7 | 0.00 | 0.00 | 0.00 | 35 | 1013.2 |
| 20260504230512 | 23 | 210 | 11.3 | 25.7 | 0.00 | 0.00 | 0.00 | 35 | 1013.2 |
| 20260504230035 | 24 | 205 | 9.7 | 25.7 | 0.00 | 0.00 | 0.00 | 34 | 1013.4 |
| 20260504225515 | 24 | 173 | 12.9 | 24.1 | 0.00 | 0.00 | 0.00 | 34 | 1013.3 |
| 20260504225013 | 24 | 194 | 16.1 | 29.0 | 0.00 | 0.00 | 0.00 | 34 | 1013.2 |
| 20260504224531 | 24 | 234 | 8.0 | 27.4 | 0.00 | 0.00 | 0.00 | 35 | 1013.5 |
| 20260504224018 | 24 | 225 | 3.2 | 17.7 | 0.00 | 0.00 | 0.00 | 35 | 1013.4 |
| 20260504223512 | 24 | 240 | 9.7 | 22.5 | 0.00 | 0.00 | 0.00 | 34 | 1013.2 |
| 20260504223037 | 24 | 177 | 9.7 | 22.5 | 0.00 | 0.00 | 0.00 | 35 | 1013.2 |
| 20260504222513 | 25 | 173 | 9.7 | 20.9 | 0.00 | 0.00 | 0.00 | 34 | 1013.3 |
| 20260504222011 | 25 | 172 | 12.9 | 24.1 | 0.00 | 0.00 | 0.00 | 34 | 1013.3 |
| 20260504221533 | 25 | 172 | 9.7 | 25.7 | 0.00 | 0.00 | 0.00 | 34 | 1013.3 |
| 20260504221013 | 25 | 217 | 12.9 | 25.7 | 0.00 | 0.00 | 0.00 | 33 | 1013.3 |
| 20260504220510 | 25 | 245 | 6.4 | 19.3 | 0.00 | 0.00 | 0.00 | 34 | 1013.3 |
| 20260504220044 | 25 | 192 | 11.3 | 29.0 | 0.00 | 0.00 | 0.00 | 34 | 1013.3 |
| 20260504215513 | 25 | 192 | 12.9 | 29.0 | 0.00 | 0.00 | 0.00 | 33 | 1013.3 |
| 20260504215013 | 25 | 171 | 9.7 | 20.9 | 0.00 | 0.00 | 0.00 | 33 | 1013.4 |
| 20260504214539 | 25 | 223 | 9.7 | 25.7 | 0.00 | 0.00 | 0.00 | 33 | 1013.4 |
| 20260504214012 | 25 | 215 | 11.3 | 29.0 | 0.00 | 0.00 | 0.00 | 34 | 1013.5 |
| 20260504213512 | 25 | 204 | 6.4 | 27.4 | 0.00 | 0.00 | 0.00 | 33 | 1013.5 |
| 20260504213050 | 25 | 194 | 11.3 | 22.5 | 0.00 | 0.00 | 0.00 | 33 | 1013.5 |
| 20260504212511 | 25 | 185 | 4.8 | 24.1 | 0.00 | 0.00 | 0.00 | 33 | 1013.7 |
| 20260504212017 | 25 | 172 | 9.7 | 24.1 | 0.00 | 0.00 | 0.00 | 33 | 1013.5 |
| 20260504211541 | 25 | 180 | 6.4 | 20.9 | 0.00 | 0.00 | 0.00 | 33 | 1013.6 |
| 20260504211013 | 25 | 213 | 14.5 | 29.0 | 0.00 | 0.00 | 0.00 | 32 | 1013.6 |
| 20260504210512 | 25 | 188 | 11.3 | 29.0 | 0.00 | 0.00 | 0.00 | 33 | 1013.5 |
| 20260504210036 | 25 | 269 | 3.2 | 22.5 | 0.00 | 0.00 | 0.00 | 33 | 1013.7 |
| 20260504205514 | 25 | 185 | 9.7 | 22.5 | 0.00 | 0.00 | 0.00 | 34 | 1013.6 |
| 20260504205010 | 25 | 171 | 6.4 | 25.7 | 0.00 | 0.00 | 0.00 | 32 | 1013.7 |
| 20260504204541 | 25 | 184 | 12.9 | 25.7 | 0.00 | 0.00 | 0.00 | 33 | 1013.8 |
| 20260504204012 | 25 | 259 | 9.7 | 27.4 | 0.00 | 0.00 | 0.00 | 33 | 1013.7 |
| 20260504203512 | 25 | 163 | 14.5 | 29.0 | 0.00 | 0.00 | 0.00 | 32 | 1013.9 |
| 20260504203036 | 25 | 250 | 11.3 | 27.4 | 0.00 | 0.00 | 0.00 | 31 | 1013.8 |
| 20260504202513 | 25 | 204 | 6.4 | 24.1 | 0.00 | 0.00 | 0.00 | 32 | 1013.8 |
| 20260504202013 | 25 | 190 | 8.0 | 29.0 | 0.00 | 0.00 | 0.00 | 32 | 1013.9 |
| 20260504201538 | 25 | 207 | 8.0 | 29.0 | 0.00 | 0.00 | 0.00 | 33 | 1013.8 |
| 20260504201012 | 25 | 228 | 12.9 | 27.4 | 0.00 | 0.00 | 0.00 | 33 | 1013.6 |
| 20260504200512 | 24 | 266 | 9.7 | 27.4 | 0.00 | 0.00 | 0.00 | 33 | 1013.8 |
| 20260504200038 | 25 | 201 | 9.7 | 22.5 | 0.00 | 0.00 | 0.00 | 33 | 1013.8 |
| 20260504195511 | 24 | 171 | 12.9 | 22.5 | 0.00 | 0.00 | 0.00 | 34 | 1013.8 |
| 20260504195015 | 24 | 177 | 6.4 | 20.9 | 0.00 | 0.00 | 0.00 | 34 | 1014.0 |
| 20260504194536 | 24 | 184 | 8.0 | 24.1 | 0.00 | 0.00 | 0.00 | 34 | 1014.0 |
| 20260504194014 | 24 | 193 | 9.7 | 19.3 | 0.00 | 0.00 | 0.00 | 33 | 1014.0 |
| 20260504193512 | 24 | 171 | 6.4 | 24.1 | 0.00 | 0.00 | 0.00 | 34 | 1014.0 |
| 20260504193043 | 24 | 181 | 11.3 | 25.7 | 0.00 | 0.00 | 0.00 | 34 | 1014.2 |
| 20260504192514 | 24 | 209 | 9.7 | 25.7 | 0.00 | 0.00 | 0.00 | 35 | 1014.1 |
| 20260504192013 | 24 | 170 | 6.4 | 25.7 | 0.00 | 0.00 | 0.00 | 34 | 1014.3 |
| 20260504191535 | 24 | 201 | 9.7 | 24.1 | 0.00 | 0.00 | 0.00 | 34 | 1014.3 |
| 20260504191014 | 24 | 213 | 11.3 | 24.1 | 0.00 | 0.00 | 0.00 | 34 | 1014.1 |
| 20260504190516 | 24 | 193 | 6.4 | 30.6 | 0.00 | 0.00 | 0.00 | 34 | 1014.6 |
| 20260504190035 | 24 | 221 | 11.3 | 17.7 | 0.00 | 0.00 | 0.00 | 35 | 1014.6 |
| 20260504185515 | 24 | 160 | 4.8 | 25.7 | 0.00 | 0.00 | 0.00 | 35 | 1014.4 |
| 20260504185016 | 23 | 147 | 8.0 | 25.7 | 0.00 | 0.00 | 0.00 | 35 | 1014.7 |
| 20260504184533 | 24 | 141 | 11.3 | 25.7 | 0.00 | 0.00 | 0.00 | 34 | 1014.7 |
| 20260504184017 | 24 | 160 | 4.8 | 19.3 | 0.00 | 0.00 | 0.00 | 36 | 1014.7 |
| 20260504183513 | 23 | 195 | 8.0 | 20.9 | 0.00 | 0.00 | 0.00 | 36 | 1015.0 |
| 20260504183030 | 23 | 170 | 12.9 | 20.9 | 0.00 | 0.00 | 0.00 | 36 | 1015.1 |
| 20260504182513 | 23 | 234 | 6.4 | 20.9 | 0.00 | 0.00 | 0.00 | 37 | 1015.3 |
| 20260504182016 | 23 | 176 | 8.0 | 25.7 | 0.00 | 0.00 | 0.00 | 36 | 1015.2 |
| 20260504181534 | 23 | 352 | 11.3 | 25.7 | 0.00 | 0.00 | 0.00 | 36 | 1015.3 |